Location: Utrecht
(52.0907°N, 5.1214°E)
Time: 17:21:39
(UTC+02:00)

DIWATA 2B (PO-101) - Pass Details

Date: 06 July 2022
Orbit: 583 x 599 km, 98.0° (Epoch: 07 August)

Event Time Altitude Azimuth Distance (km) Brightness Sun altitude
Exits shadow 02:45:02 - 140° (SE) 2,112 ? -14.0°
Reaches altitude 10° 02:45:28 10° 139° (SE) 1,939 ? -14.0°
Maximum altitude 02:49:27 43° 68° (ENE) 854 ? -13.9°
Drops below altitude 10° 02:53:27 10° 357° (N) 1,951 ? -13.7°
Sets 02:55:42 0° 351° (N) 2,857 ? -13.6°
